Previsão horária em Ali

Hoje, 18 Janeiro, Segunda-feira

Tempo Temperatura Precipitação Vento Pressão Humidade
00:00 -4°C° 0 mm 1 m/s 707 mmHg 65%
01:00 -4°C° 0 mm 1 m/s 707 mmHg 64%
02:00 -4°C° 0 mm 1 m/s 707 mmHg 63%
03:00 -4°C° 0 mm 1 m/s 707 mmHg 65%
04:00 -4°C° 0 mm 1 m/s 706 mmHg 67%
05:00 -4°C° 0 mm 1 m/s 706 mmHg 68%
06:00 -4°C° 0 mm 1 m/s 706 mmHg 69%
07:00 -4°C° 0 mm 1 m/s 706 mmHg 69%
08:00 -6°C° 0 mm 1 m/s 706 mmHg 70%
09:00 -3°C° 0 mm 1 m/s 706 mmHg 71%
10:00 -1°C° 0 mm 1 m/s 707 mmHg 71%
11:00 0°C° 0 mm 0 m/s 707 mmHg 71%
12:00 0°C° 0 mm 0 m/s 706 mmHg 73%
13:00 +1°C° 0 mm 0 m/s 706 mmHg 75%
14:00 +1°C° 0 mm 0 m/s 706 mmHg 77%
15:00 0°C° 0 mm 0 m/s 706 mmHg 75%
16:00 -1°C° 0 mm 0 m/s 707 mmHg 73%
17:00 0°C° 0 mm 1 m/s 707 mmHg 71%
18:00 0°C° 0 mm 1 m/s 707 mmHg 70%
19:00 +1°C° 0 mm 1 m/s 707 mmHg 69%
20:00 +1°C° 0 mm 1 m/s 707 mmHg 67%
21:00 -1°C° 0 mm 2 m/s 708 mmHg 66%
22:00 -1°C° 0 mm 2 m/s 708 mmHg 64%
23:00 -1°C° 0 mm 2 m/s 708 mmHg 62%

Amanhã, 19 Janeiro, Terça-feira

Tempo Temperatura Precipitação Vento Pressão Humidade
00:00 +1°C° 0 mm 1 m/s 708 mmHg 62%
01:00 +1°C° 0 mm 1 m/s 708 mmHg 61%
02:00 +1°C° 0 mm 1 m/s 708 mmHg 61%
03:00 +1°C° 0 mm 1 m/s 709 mmHg 61%
04:00 +1°C° 0 mm 1 m/s 709 mmHg 61%
05:00 +2°C° 0 mm 1 m/s 709 mmHg 61%
06:00 +1°C° 0 mm 1 m/s 709 mmHg 63%
07:00 +1°C° 0 mm 1 m/s 709 mmHg 64%
08:00 +1°C° 0 mm 1 m/s 710 mmHg 65%
09:00 +2°C° 0 mm 1 m/s 710 mmHg 69%
10:00 +3°C° 0 mm 1 m/s 710 mmHg 74%
11:00 +4°C° 0 mm 1 m/s 710 mmHg 78%
12:00 +4°C° 0 mm 1 m/s 710 mmHg 79%
13:00 +4°C° 0 mm 1 m/s 710 mmHg 80%
14:00 +4°C° 0 mm 1 m/s 709 mmHg 81%
15:00 +3°C° 0 mm 2 m/s 710 mmHg 77%
16:00 +3°C° 0 mm 2 m/s 710 mmHg 73%
17:00 +1°C° 0 mm 3 m/s 711 mmHg 69%
18:00 +2°C° 0 mm 2 m/s 711 mmHg 69%
19:00 +1°C° 0 mm 2 m/s 711 mmHg 70%
20:00 -1°C° 0 mm 2 m/s 711 mmHg 70%
21:00 +1°C° 0 mm 2 m/s 712 mmHg 69%
22:00 +1°C° 0 mm 2 m/s 712 mmHg 68%
23:00 +2°C° 0 mm 1 m/s 712 mmHg 67%

Depois de amanhã, 20 Janeiro, Quarta-feira

Tempo Temperatura Precipitação Vento Pressão Humidade
00:00 +2°C° 0 mm 1 m/s 712 mmHg 67%
01:00 +2°C° 0 mm 1 m/s 713 mmHg 67%
02:00 +2°C° 0 mm 1 m/s 713 mmHg 66%
03:00 +2°C° 0 mm 1 m/s 713 mmHg 67%
04:00 +2°C° 0 mm 1 m/s 714 mmHg 69%
05:00 +2°C° 0 mm 1 m/s 714 mmHg 70%
06:00 +2°C° 0 mm 1 m/s 715 mmHg 70%
07:00 +1°C° 0 mm 2 m/s 715 mmHg 71%
08:00 +1°C° 0 mm 2 m/s 716 mmHg 72%
09:00 +1°C° 0.3 mm 2 m/s 716 mmHg 79%
10:00 +1°C° 0.3 mm 2 m/s 717 mmHg 87%
11:00 +2°C° 0.3 mm 2 m/s 717 mmHg 95%
12:00 +2°C° 0.1 mm 2 m/s 717 mmHg 94%
13:00 +3°C° 0.1 mm 2 m/s 717 mmHg 94%
14:00 +3°C° 0.1 mm 2 m/s 717 mmHg 94%
15:00 +2°C° 0 mm 2 m/s 717 mmHg 91%
16:00 +1°C° 0 mm 3 m/s 717 mmHg 89%
17:00 0°C° 0 mm 3 m/s 717 mmHg 86%
18:00 0°C° 0 mm 3 m/s 717 mmHg 84%
19:00 0°C° 0 mm 3 m/s 717 mmHg 82%
20:00 0°C° 0 mm 3 m/s 718 mmHg 79%
21:00 -1°C° 0 mm 4 m/s 717 mmHg 78%
22:00 -1°C° 0 mm 5 m/s 717 mmHg 77%
23:00 -2°C° 0 mm 6 m/s 716 mmHg 76%

21 Janeiro, Quinta-feira

Tempo Temperatura Precipitação Vento Pressão Humidade
00:00 -3°C° 0 mm 7 m/s 716 mmHg 76%
01:00 -4°C° 0 mm 8 m/s 715 mmHg 76%
02:00 -4°C° 0 mm 9 m/s 714 mmHg 76%
03:00 -4°C° 0 mm 9 m/s 714 mmHg 75%
04:00 -4°C° 0 mm 9 m/s 713 mmHg 74%
05:00 -4°C° 0 mm 10 m/s 713 mmHg 73%
06:00 -4°C° 0 mm 9 m/s 712 mmHg 73%
07:00 -4°C° 0 mm 9 m/s 711 mmHg 72%
08:00 -4°C° 0 mm 9 m/s 711 mmHg 72%
09:00 -2°C° 0 mm 8 m/s 710 mmHg 71%
10:00 -1°C° 0 mm 8 m/s 709 mmHg 71%
11:00 0°C° 0 mm 7 m/s 708 mmHg 70%
12:00 0°C° 0 mm 7 m/s 707 mmHg 69%
13:00 0°C° 0 mm 7 m/s 706 mmHg 69%
14:00 +2°C° 0 mm 6 m/s 705 mmHg 69%
15:00 +1°C° 0 mm 6 m/s 705 mmHg 67%
16:00 0°C° 0 mm 5 m/s 705 mmHg 65%
17:00 0°C° 0 mm 4 m/s 705 mmHg 63%
18:00 0°C° 0 mm 3 m/s 704 mmHg 65%
19:00 -1°C° 0 mm 3 m/s 704 mmHg 67%
20:00 -1°C° 0 mm 2 m/s 704 mmHg 69%
21:00 -1°C° 0 mm 2 m/s 704 mmHg 69%
22:00 -2°C° 0 mm 2 m/s 703 mmHg 69%
23:00 -2°C° 0 mm 2 m/s 703 mmHg 69%

22 Janeiro, Sexta-feira

Tempo Temperatura Precipitação Vento Pressão Humidade
00:00 0°C° 0 mm 1 m/s 702 mmHg 68%
01:00 0°C° 0 mm 1 m/s 702 mmHg 66%
02:00 +1°C° 0 mm 1 m/s 702 mmHg 65%
03:00 +1°C° 0 mm 1 m/s 701 mmHg 64%
04:00 +1°C° 0 mm 1 m/s 701 mmHg 64%
05:00 +1°C° 0 mm 1 m/s 701 mmHg 63%
06:00 -1°C° 0 mm 2 m/s 702 mmHg 64%
07:00 -1°C° 0 mm 3 m/s 703 mmHg 64%
08:00 -1°C° 0 mm 3 m/s 704 mmHg 65%
09:00 0°C° 0 mm 3 m/s 705 mmHg 67%
10:00 +1°C° 0 mm 3 m/s 706 mmHg 68%
11:00 +2°C° 0 mm 3 m/s 707 mmHg 70%
12:00 +1°C° 0.1 mm 4 m/s 708 mmHg 75%
13:00 +1°C° 0.1 mm 5 m/s 709 mmHg 81%
14:00 +1°C° 0.1 mm 5 m/s 710 mmHg 86%
15:00 -2°C° 0.3 mm 6 m/s 712 mmHg 82%
16:00 -3°C° 0.3 mm 6 m/s 714 mmHg 78%
17:00 -6°C° 0.3 mm 7 m/s 716 mmHg 74%
18:00 -6°C° 0.1 mm 7 m/s 718 mmHg 74%
19:00 -6°C° 0.1 mm 6 m/s 719 mmHg 74%
20:00 -8°C° 0.1 mm 6 m/s 721 mmHg 74%
21:00 -7°C° 0 mm 5 m/s 722 mmHg 76%
22:00 -6°C° 0 mm 3 m/s 722 mmHg 78%
23:00 -6°C° 0 mm 2 m/s 723 mmHg 80%

23 Janeiro, Sábado

Tempo Temperatura Precipitação Vento Pressão Humidade
00:00 -6°C° 0 mm 2 m/s 723 mmHg 81%
01:00 -6°C° 0 mm 2 m/s 723 mmHg 81%
02:00 -4°C° 0 mm 1 m/s 724 mmHg 81%
03:00 -4°C° 0 mm 1 m/s 724 mmHg 81%
04:00 -6°C° 0 mm 1 m/s 724 mmHg 80%
05:00 -6°C° 0 mm 1 m/s 724 mmHg 79%
06:00 -6°C° 0 mm 1 m/s 725 mmHg 79%
07:00 -7°C° 0 mm 1 m/s 725 mmHg 79%
08:00 -7°C° 0 mm 1 m/s 725 mmHg 79%
09:00 -6°C° 0 mm 1 m/s 726 mmHg 76%
10:00 -6°C° 0 mm 1 m/s 726 mmHg 73%
11:00 -6°C° 0 mm 2 m/s 726 mmHg 70%
12:00 -4°C° 0 mm 1 m/s 726 mmHg 69%
13:00 -3°C° 0 mm 1 m/s 726 mmHg 68%
14:00 -3°C° 0 mm 1 m/s 725 mmHg 68%
15:00 -4°C° 0 mm 1 m/s 726 mmHg 72%
16:00 -6°C° 0 mm 2 m/s 726 mmHg 76%
17:00 -7°C° 0 mm 2 m/s 727 mmHg 80%
18:00 -7°C° 0 mm 2 m/s 727 mmHg 77%
19:00 -7°C° 0 mm 2 m/s 728 mmHg 74%
20:00 -8°C° 0 mm 2 m/s 728 mmHg 72%
21:00 -7°C° 0 mm 1 m/s 728 mmHg 71%
22:00 -7°C° 0 mm 1 m/s 728 mmHg 70%
23:00 -7°C° 0 mm 1 m/s 728 mmHg 69%
Mostrar mais

Necessitamos do seu Consentimento

A Meteoprog e os seus Fornecedores de Serviços podem armazenar e aceder a dados pessoais como cookies, identificadores do dispositivo ou outras tecnologias semelhantes existentes no seu dispositivo e processar estes dados para personalizar conteúdos e anúncios, assim como funcionalidades nas redes sociais e análise de tráfego.

  • Armazenar e/ou aceder a informações no seu dispositivo

    Os cookies, identificadores do dispositivo ou outras informações podem ser armazenados ou acedidos no seu dispositivo, para os fins acima indicados.

  • Anúncios e conteúdos personalizados, medição de anúncios e conteúdos, dados sobre o público-alvo e desenvolvimento de produtos

    Os anúncios e os conteúdos podem ser personalizados com base num perfil. Podem ser adicionados dados adicionais para uma maior personalização dos anúncios e dos conteúdos. A eficácia dos anúncios e dos conteúdos pode ser medida. Podem ser obtidas informações sobre o público que visualizou os anúncios e os conteúdos. Estes dados podem ser usados para desenvolver ou melhorar sistemas, softwares ou a experiência do utilizador.

Ao clicar em "Eu concordo”, permitirá o uso de cookies, identificadores do dispositivo e web beacons mencionados ou outras tecnologias semelhantes. As configurações do navegador do seu dispositivo podem ser alteradas.

Para certos fins, podem ser invocados interesses legítimos ao invés de consentimento. Pode ler mais informação sobre este assunto na nossa Política de Privacidade e Cookies.